When you browse on this site, cookies collect data to enhance your experience and personalize the content and advertising you see.
Visit our Privacy Policy to learn more. By continuing to use the site, you agree to this use of cookies and data.
  • In Austria
  • List of Countries
  • For 7 days
  • Water Temperature
  • Satellite Maps
  • Weather Map
  • News
  • Weather Widgets
  • user-avatar
    Login

    Hourly Weather Sala

    Today, 9 December, Sunday

    Time Temperature Precipitation Wind Pressure Humidity
    00:00 +14°C° 0 mm 2 mps 766 mmHg 88%
    01:00 +14°C° 0 mm 1 mps 766 mmHg 87%
    02:00 +13°C° 0 mm 1 mps 765 mmHg 87%
    03:00 +13°C° 0 mm 1 mps 765 mmHg 87%
    04:00 +13°C° 0 mm 1 mps 765 mmHg 85%
    05:00 +13°C° 0 mm 1 mps 765 mmHg 84%
    06:00 +13°C° 0 mm 1 mps 765 mmHg 83%
    07:00 +14°C° 0 mm 1 mps 765 mmHg 79%
    08:00 +15°C° 0 mm 1 mps 765 mmHg 74%
    09:00 +16°C° 0 mm 1 mps 765 mmHg 69%
    10:00 +19°C° 0 mm 1 mps 765 mmHg 63%
    11:00 +21°C° 0 mm 1 mps 765 mmHg 56%
    12:00 +22°C° 0 mm 1 mps 765 mmHg 52%
    13:00 +23°C° 0 mm 2 mps 765 mmHg 51%
    14:00 +23°C° 0 mm 2 mps 764 mmHg 49%
    15:00 +24°C° 0 mm 2 mps 764 mmHg 48%
    16:00 +21°C° 0 mm 2 mps 764 mmHg 56%
    17:00 +20°C° 0 mm 2 mps 764 mmHg 64%
    18:00 +18°C° 0 mm 2 mps 764 mmHg 72%
    19:00 +17°C° 0 mm 2 mps 765 mmHg 73%
    20:00 +18°C° 0 mm 1 mps 765 mmHg 74%
    21:00 +18°C° 0 mm 1 mps 765 mmHg 76%
    22:00 +16°C° 0 mm 1 mps 765 mmHg 74%
    23:00 +16°C° 0 mm 1 mps 765 mmHg 73%

    Tomorrow, 10 December, Monday

    Time Temperature Precipitation Wind Pressure Humidity
    00:00 +15°C° 0 mm 0 mps 765 mmHg 71%
    01:00 +16°C° 0 mm 1 mps 765 mmHg 69%
    02:00 +16°C° 0 mm 1 mps 764 mmHg 68%
    03:00 +16°C° 0 mm 1 mps 764 mmHg 66%
    04:00 +16°C° 0 mm 1 mps 764 mmHg 64%
    05:00 +16°C° 0 mm 1 mps 764 mmHg 62%
    06:00 +15°C° 0 mm 1 mps 764 mmHg 60%
    07:00 +18°C° 0 mm 1 mps 764 mmHg 57%
    08:00 +19°C° 0 mm 1 mps 764 mmHg 54%
    09:00 +20°C° 0 mm 1 mps 764 mmHg 51%
    10:00 +22°C° 0 mm 1 mps 764 mmHg 45%
    11:00 +23°C° 0 mm 2 mps 764 mmHg 40%
    12:00 +25°C° 0 mm 2 mps 764 mmHg 35%
    13:00 +25°C° 0 mm 2 mps 764 mmHg 36%
    14:00 +25°C° 0 mm 2 mps 763 mmHg 36%
    15:00 +25°C° 0 mm 2 mps 763 mmHg 37%
    16:00 +23°C° 0 mm 2 mps 763 mmHg 46%
    17:00 +20°C° 0 mm 2 mps 763 mmHg 56%
    18:00 +18°C° 0 mm 2 mps 764 mmHg 65%
    19:00 +18°C° 0 mm 2 mps 764 mmHg 67%
    20:00 +17°C° 0 mm 2 mps 764 mmHg 70%
    21:00 +17°C° 0 mm 2 mps 764 mmHg 72%
    22:00 +16°C° 0 mm 2 mps 764 mmHg 73%
    23:00 +16°C° 0 mm 2 mps 764 mmHg 74%

    Day after tomorrow, 11 December, Tuesday

    Time Temperature Precipitation Wind Pressure Humidity
    00:00 +16°C° 0 mm 2 mps 764 mmHg 76%
    01:00 +15°C° 0 mm 2 mps 764 mmHg 77%
    02:00 +15°C° 0 mm 2 mps 764 mmHg 78%
    03:00 +15°C° 0 mm 2 mps 763 mmHg 79%
    04:00 +15°C° 0 mm 2 mps 763 mmHg 80%
    05:00 +14°C° 0 mm 2 mps 763 mmHg 82%
    06:00 +14°C° 0 mm 2 mps 763 mmHg 83%
    07:00 +15°C° 0 mm 2 mps 764 mmHg 79%
    08:00 +16°C° 0 mm 2 mps 764 mmHg 76%
    09:00 +17°C° 0 mm 2 mps 764 mmHg 72%
    10:00 +18°C° 0 mm 2 mps 764 mmHg 66%
    11:00 +19°C° 0 mm 2 mps 764 mmHg 60%
    12:00 +20°C° 0 mm 2 mps 764 mmHg 54%
    13:00 +21°C° 0 mm 3 mps 763 mmHg 55%
    14:00 +21°C° 0 mm 3 mps 763 mmHg 56%
    15:00 +21°C° 0 mm 3 mps 763 mmHg 56%
    16:00 +19°C° 0 mm 3 mps 763 mmHg 66%
    17:00 +18°C° 0 mm 2 mps 763 mmHg 75%
    18:00 +17°C° 0 mm 2 mps 763 mmHg 84%
    19:00 +16°C° 0 mm 1 mps 764 mmHg 86%
    20:00 +16°C° 0 mm 1 mps 764 mmHg 88%
    21:00 +14°C° 0 mm 0 mps 764 mmHg 90%
    22:00 +14°C° 0 mm 0 mps 764 mmHg 91%
    23:00 +13°C° 0 mm 0 mps 764 mmHg 91%

    12 December, Wednesday

    Time Temperature Precipitation Wind Pressure Humidity
    00:00 +14°C° 0 mm 1 mps 764 mmHg 92%
    01:00 +14°C° 0 mm 1 mps 764 mmHg 92%
    02:00 +14°C° 0 mm 1 mps 763 mmHg 92%
    03:00 +13°C° 0 mm 1 mps 763 mmHg 92%
    04:00 +13°C° 0 mm 1 mps 763 mmHg 93%
    05:00 +13°C° 0 mm 1 mps 763 mmHg 95%
    06:00 +13°C° 0 mm 2 mps 763 mmHg 96%
    07:00 +14°C° 0 mm 1 mps 763 mmHg 91%
    08:00 +15°C° 0 mm 1 mps 764 mmHg 87%
    09:00 +15°C° 0 mm 1 mps 764 mmHg 83%
    10:00 +18°C° 0 mm 1 mps 764 mmHg 76%
    11:00 +19°C° 0 mm 1 mps 764 mmHg 70%
    12:00 +20°C° 0 mm 1 mps 764 mmHg 63%
    13:00 +21°C° 0 mm 1 mps 763 mmHg 62%
    14:00 +21°C° 0 mm 1 mps 763 mmHg 60%
    15:00 +20°C° 0 mm 2 mps 762 mmHg 59%
    16:00 +20°C° 0 mm 1 mps 762 mmHg 66%
    17:00 +18°C° 0 mm 1 mps 762 mmHg 73%
    18:00 +16°C° 0 mm 1 mps 763 mmHg 80%
    19:00 +16°C° 0 mm 2 mps 763 mmHg 83%
    20:00 +15°C° 0 mm 2 mps 764 mmHg 85%
    21:00 +14°C° 0 mm 3 mps 764 mmHg 88%
    22:00 +15°C° 0 mm 2 mps 764 mmHg 89%
    23:00 +15°C° 0 mm 2 mps 764 mmHg 89%

    13 December, Thursday

    Time Temperature Precipitation Wind Pressure Humidity
    00:00 +15°C° 0 mm 1 mps 765 mmHg 90%
    01:00 +15°C° 0 mm 1 mps 764 mmHg 90%
    02:00 +15°C° 0 mm 1 mps 764 mmHg 90%
    03:00 +14°C° 0 mm 2 mps 764 mmHg 90%
    04:00 +14°C° 0 mm 2 mps 764 mmHg 91%
    05:00 +14°C° 0 mm 2 mps 764 mmHg 92%
    06:00 +14°C° 0 mm 2 mps 765 mmHg 93%
    07:00 +15°C° 0 mm 2 mps 765 mmHg 90%
    08:00 +15°C° 0 mm 2 mps 765 mmHg 88%
    09:00 +16°C° 0 mm 2 mps 766 mmHg 85%
    10:00 +17°C° 0 mm 2 mps 766 mmHg 77%
    11:00 +18°C° 0 mm 2 mps 765 mmHg 69%
    12:00 +20°C° 0 mm 2 mps 765 mmHg 61%
    13:00 +20°C° 0 mm 2 mps 765 mmHg 60%
    14:00 +20°C° 0 mm 2 mps 764 mmHg 59%
    15:00 +21°C° 0 mm 3 mps 764 mmHg 58%
    16:00 +19°C° 0 mm 2 mps 765 mmHg 65%
    17:00 +18°C° 0 mm 2 mps 765 mmHg 72%
    18:00 +18°C° 0 mm 1 mps 765 mmHg 79%
    19:00 +16°C° 0 mm 1 mps 766 mmHg 82%
    20:00 +16°C° 0 mm 1 mps 766 mmHg 84%
    21:00 +15°C° 0 mm 1 mps 766 mmHg 86%
    22:00 +15°C° 0 mm 1 mps 766 mmHg 86%
    23:00 +15°C° 0 mm 1 mps 766 mmHg 86%

    14 December, Friday

    Time Temperature Precipitation Wind Pressure Humidity
    00:00 +15°C° 0 mm 1 mps 766 mmHg 87%
    01:00 +14°C° 0 mm 1 mps 766 mmHg 86%
    02:00 +14°C° 0 mm 1 mps 766 mmHg 86%
    03:00 +14°C° 0 mm 1 mps 766 mmHg 85%
    04:00 +14°C° 0 mm 1 mps 766 mmHg 85%
    05:00 +14°C° 0 mm 1 mps 766 mmHg 85%
    06:00 +14°C° 0 mm 1 mps 766 mmHg 85%
    07:00 +15°C° 0 mm 1 mps 767 mmHg 79%
    08:00 +16°C° 0 mm 1 mps 767 mmHg 74%
    09:00 +17°C° 0 mm 2 mps 768 mmHg 69%
    10:00 +20°C° 0 mm 1 mps 767 mmHg 64%
    11:00 +21°C° 0 mm 1 mps 767 mmHg 58%
    12:00 +23°C° 0 mm 1 mps 767 mmHg 53%
    13:00 +23°C° 0 mm 1 mps 767 mmHg 53%
    14:00 +23°C° 0 mm 1 mps 766 mmHg 53%
    15:00 +24°C° 0 mm 2 mps 766 mmHg 53%
    16:00 +21°C° 0 mm 2 mps 766 mmHg 61%
    17:00 +20°C° 0 mm 2 mps 766 mmHg 68%
    18:00 +18°C° 0 mm 3 mps 767 mmHg 76%
    19:00 +18°C° 0 mm 2 mps 767 mmHg 79%
    20:00 +17°C° 0 mm 2 mps 767 mmHg 82%
    21:00 +17°C° 0 mm 2 mps 767 mmHg 85%
    22:00 +16°C° 0 mm 2 mps 767 mmHg 86%
    23:00 +16°C° 0 mm 2 mps 767 mmHg 86%
    Show more